Regional Weather Roundup
Issued by NWS Goodland, KS

Home | Current Version | Previous Version | Graphics & Text | Print | Product List | Glossary On
Versions: 1 2 3 4 5 6 7 8 9 10 11 12 13 14 15 16 17 18 19 20 21 22 23 24 25 26 27 28 29 30 31 32 33 34 35 36 37 38 39 40 41 42 43 44 45 46 47 48 49 50
000
ASUS43 KGLD 220008
RWRGLD

GOODLAND FORECAST AREA HOURLY WEATHER ROUNDUP
NATIONAL WEATHER SERVICE GOODLAND KS
600 PM MDT SAT OCT 21 2017

...OFFICIAL OBSERVATIONS...

CITY           SKY/WX    TMP DP  RH WIND       PRES   REMARKS
GOODLAND KS    CLEAR     53  18  25 NW13      30.03R
HILL CITY KS   CLEAR     54  37  52 NE6       29.98R
IMPERIAL NEB   CLEAR     54  18  24 NW7       30.01R
MCCOOK NEB     CLEAR     55  23  28 NW12      29.98R
AKRON CO       CLEAR     48  10  21 NW20      30.07R
BURLINGTON CO  CLEAR     53  11  18 NW16G24   30.06R
LIMON CO       CLEAR     46   7  20 N13       30.07R
$$

...UNOFFICIAL OBSERVATIONS...

CITY           SKY/WX    TMP DP  RH WIND       PRES   REMARKS
COLBY KS       CLEAR     55  25  30 NW9       30.02R
LENORA KS        N/A     54  32  43 NW6         N/A
NORTON KS      CLEAR     52  28  40 NW5       29.97R
SHARON SPRINGS   N/A     54  20  26 NW9         N/A
TRENTON NEB      N/A     54  32  43 NW6         N/A
KIT CARSON CO    N/A     53  13  20 MISG        N/A
YUMA CO        FAIR      52  12  20 W16G25    30.05R
$$




USA.gov is the U.S. government's official web portal to all federal, state and local government web resources and services.